DateTimeUTC,F1_A11,F1_S11,BsB_S11,BsG_S11,BsR_S11,BbsB_S11,BbsG_S11,BbsR_S11,BaB_A11,BaG_A11,BaR_A11,Tu_S11,T_S11,Uu_S11,U_S11,P_S11,T1_A11
2021-02-08T19:00:00Z,00000200,21000000,,,,,,,-000.09,-000.01,-000.04,16.0,23.6,,00.0,0655.5,30.9
2021-02-08T19:01:00Z,00000200,21000000,,,,,,,-000.11,0000.36,-000.02,16.0,23.6,,00.0,0655.5,31.0
2021-02-08T19:02:00Z,00000200,21000000,,,,,,,-000.08,-000.10,0000.24,16.0,23.6,,00.0,0655.5,31.0
2021-02-08T19:03:00Z,00000200,61000000,,,,,,,0000.14,0000.06,-000.34,16.0,23.6,,00.0,0655.5,31.0
2021-02-08T19:04:00Z,00000200,41000000,0000.64,0000.36,-000.13,0000.23,-000.17,0000.40,0000.03,-000.29,0000.20,16.4,23.5,,00.0,0656.4,31.0
2021-02-08T19:05:00Z,00000200,01000000,-000.38,0000.22,0000.20,-000.25,0000.01,0000.24,0000.06,0000.13,-000.19,16.5,23.4,,00.0,0656.4,31.0
2021-02-08T19:06:00Z,00000200,01000000,0000.49,-000.03,-000.09,-000.30,-000.18,0000.12,-000.15,-000.11,-000.29,16.5,23.4,,00.0,0656.4,31.0
2021-02-08T19:07:00Z,00000200,01000000,-000.40,0000.27,0000.15,0000.24,0000.29,0000.32,-000.07,-000.28,0000.03,16.5,23.4,,00.0,0656.5,31.0
2021-02-08T19:08:00Z,00000200,01000000,0000.35,0000.39,0000.04,0000.23,-000.16,-000.10,-000.22,0000.02,0000.05,16.4,23.4,,00.0,0656.5,31.0
2021-02-08T19:09:00Z,00000200,01000000,-000.09,0000.49,0000.04,0000.24,-000.06,0000.00,-000.16,-000.05,-000.01,16.4,23.4,,00.0,0656.5,31.0
2021-02-08T19:10:00Z,00000200,01000000,0000.45,0000.38,-000.09,0000.31,0000.18,0000.13,0000.05,0000.03,-000.29,16.4,23.3,,00.0,0656.5,31.0
2021-02-08T19:11:00Z,00000200,01000000,-000.26,0000.12,0000.10,0000.26,0000.03,0000.16,0000.07,-000.14,0000.43,16.3,23.3,,00.0,0656.6,31.0
2021-02-08T19:12:00Z,00000200,01000000,0000.92,0000.43,-000.11,0000.38,0000.02,0000.05,-000.31,-000.18,-000.04,16.3,23.3,,00.0,0656.6,31.0
2021-02-08T19:13:00Z,00000200,01000000,0000.26,0000.08,-000.16,0000.67,-000.06,0000.07,0000.08,0000.12,-000.17,16.3,23.3,,00.0,0656.7,31.0
2021-02-08T19:14:00Z,00000200,01000000,0000.21,0000.28,0000.07,-000.28,-000.15,0000.17,0000.20,0000.21,0000.01,16.3,23.3,,00.0,0656.7,31.0
2021-02-08T19:15:00Z,00000200,01000000,0000.94,0000.47,-000.06,0000.02,-000.00,0000.16,0000.04,-000.05,0000.22,16.3,23.3,,00.0,0656.6,31.0
2021-02-08T19:16:00Z,00000200,01000000,0000.04,0000.22,-000.05,-000.36,0000.10,0000.01,0000.17,0000.02,0000.07,16.4,23.3,,00.0,0656.6,31.0
2021-02-08T19:17:00Z,00000200,01000000,0000.11,0000.24,-000.02,0000.27,-000.03,0000.18,0000.07,0000.21,0000.22,16.5,23.3,,00.0,0656.6,31.0
2021-02-08T19:18:00Z,00000200,01000000,0000.64,0000.06,0000.01,-000.00,-000.07,0000.10,0000.02,0000.24,0000.07,16.5,23.4,,00.0,0656.6,31.0
2021-02-08T19:19:00Z,00000200,01000000,0000.30,0000.26,-000.06,0000.42,-000.14,0000.14,-000.17,-000.06,-000.12,16.6,23.4,,00.0,0656.6,31.0
2021-02-08T19:20:00Z,00000200,01000000,0000.33,0000.16,0000.27,0000.17,0000.36,-000.02,0000.47,-000.11,-000.04,16.7,23.4,,00.0,0656.5,31.0
2021-02-08T19:21:00Z,00000200,01000000,0000.36,0000.14,0000.04,-000.00,0000.19,0000.13,-000.29,0000.09,-000.23,16.7,23.4,,00.0,0656.5,31.0
2021-02-08T19:22:00Z,00000200,01000000,0000.03,0000.27,0000.35,0000.27,0000.01,0000.10,-000.24,-000.36,0000.22,16.6,23.4,,00.0,0656.6,31.0
2021-02-08T19:23:00Z,00000200,01000000,0000.24,0000.18,0000.12,-000.04,0000.35,0000.13,-000.13,0000.20,-000.36,16.6,23.4,,00.0,0656.6,31.0
2021-02-08T19:24:00Z,00000200,01000000,0000.32,0000.42,-000.07,0000.28,-000.18,0000.19,0000.11,0000.00,0000.29,16.6,23.4,,00.0,0656.6,31.0
2021-02-08T19:25:00Z,00000200,01000000,0000.46,0000.38,0000.10,0000.27,0000.12,0000.05,0000.32,0000.09,0000.08,16.6,23.4,,00.0,0656.6,31.0
2021-02-08T19:26:00Z,00000200,01000000,0000.51,0000.32,0000.39,0000.26,0000.07,-000.09,-000.17,-000.06,-000.21,16.5,23.3,,00.0,0656.6,31.0
2021-02-08T19:27:00Z,00000200,01000000,0000.52,0000.01,0000.12,0000.04,0000.01,0000.28,0000.12,0000.07,0000.06,16.5,23.3,,00.0,0656.6,31.0
2021-02-08T19:28:00Z,00000200,01000000,0000.46,0000.26,0000.23,-000.17,0000.31,-000.06,0000.00,0000.35,-000.03,16.5,23.3,,00.0,0656.6,31.0
2021-02-08T19:29:00Z,00000200,01000000,0000.19,0000.22,0000.02,0000.50,-000.06,0000.20,0000.26,-000.20,0000.27,16.5,23.3,,00.0,0656.5,31.0
2021-02-08T19:30:00Z,00000200,01000000,-000.01,0000.25,0000.05,0000.30,0000.21,0000.19,0000.24,0000.19,0000.10,16.5,23.3,,00.0,0656.5,31.0
2021-02-08T19:31:00Z,00000200,01000000,0000.70,0000.17,0000.07,0000.38,0000.04,-000.12,0000.24,0000.27,0000.43,16.5,23.3,,00.0,0656.4,31.0
2021-02-08T19:32:00Z,00000200,01000000,0000.03,-000.07,0000.16,0000.20,0000.22,-000.11,0000.12,0000.28,-000.31,16.6,23.4,,00.0,0656.4,31.0
2021-02-08T19:33:00Z,00000200,01000000,-000.03,0000.25,-000.11,-000.12,-000.07,-000.13,0000.01,-000.12,0000.31,16.6,23.4,,00.0,0656.4,31.0
2021-02-08T19:34:00Z,00000200,01000000,0000.23,0000.29,0000.00,0000.12,-000.13,0000.06,-000.21,-000.41,-000.15,16.6,23.4,,00.0,0656.4,31.0
2021-02-08T19:35:00Z,00000200,01000000,-000.24,-000.04,-000.03,0000.44,0000.33,0000.18,0000.03,0000.20,-000.23,16.6,23.4,,00.0,0656.4,31.0
2021-02-08T19:36:00Z,00000200,01000000,0000.37,0000.38,-000.09,0000.18,-000.12,0000.13,-000.10,-000.04,-000.17,16.6,23.4,,00.0,0656.5,31.0
2021-02-08T19:37:00Z,00000200,01000000,0000.87,0000.53,-000.05,0000.13,-000.01,0000.08,0000.27,0000.05,0000.01,16.5,23.3,,00.0,0656.5,31.0
2021-02-08T19:38:00Z,00000200,01000000,0000.57,0000.57,0000.32,0000.52,-000.07,0000.08,-000.23,-000.07,0000.24,16.5,23.3,,00.0,0656.5,31.0
2021-02-08T19:39:00Z,00000200,01000000,0000.78,0000.42,0000.08,0000.56,-000.15,0000.24,-000.20,-000.25,0000.16,16.5,23.3,,00.0,0656.5,31.0
2021-02-08T19:40:00Z,00000200,01000000,0000.01,0000.09,0000.09,0000.67,-000.05,0000.04,-000.00,0000.02,-000.35,16.4,23.3,,00.0,0656.5,31.0
2021-02-08T19:41:00Z,00000200,01000000,0000.23,0000.10,0000.22,0000.50,-000.09,-000.06,0000.03,-000.04,0000.01,16.4,23.2,,00.0,0656.5,31.0
2021-02-08T19:42:00Z,00000200,01000000,0001.07,0000.02,0000.14,0000.55,-000.02,0000.31,-000.14,0000.11,-000.19,16.3,23.2,,00.0,0656.6,31.0
2021-02-08T19:43:00Z,00000200,01000000,-000.10,0000.27,0000.29,-000.04,0000.01,0000.04,-000.03,-000.07,-000.05,16.3,23.2,,00.0,0656.6,31.0
2021-02-08T19:44:00Z,00000200,01000000,0000.04,0000.00,-000.04,0000.61,0000.21,0000.16,0000.01,0000.06,0000.11,16.3,23.2,,00.0,0656.6,30.9
2021-02-08T19:45:00Z,00000200,01000000,0000.13,0000.13,0000.17,0000.32,-000.01,0000.17,0001.01,0000.71,0000.73,16.3,23.2,,00.0,0656.5,31.0
2021-02-08T19:46:00Z,00000200,01000000,0001.10,0000.97,0000.30,0000.26,0000.08,-000.15,0014.40,0013.13,0009.70,16.4,23.2,,00.0,0656.5,31.0
2021-02-08T19:47:00Z,00000200,01000000,0001.76,0001.19,0000.56,-000.01,0000.11,-000.07,0019.26,0017.52,0013.13,16.4,23.2,,00.0,0656.5,31.0
2021-02-08T19:48:00Z,00000200,01000000,0000.45,0000.65,0000.20,0000.71,0000.01,0000.10,0005.57,0005.15,0003.84,16.5,23.2,,00.0,0656.5,31.0
2021-02-08T19:49:00Z,00000200,01000000,0000.83,0000.24,0000.28,0000.55,0000.14,-000.15,0001.16,0000.85,0001.00,16.4,23.2,,00.0,0656.5,31.0
2021-02-08T19:50:00Z,00000200,01000000,0001.47,0000.93,0000.39,0000.78,0000.24,-000.01,0012.11,0011.07,0008.15,16.4,23.2,,00.0,0656.5,31.0
2021-02-08T19:51:00Z,00000200,01000000,0001.31,0001.11,0000.42,0000.51,0000.03,0000.07,0019.29,0017.10,0013.26,16.4,23.2,,00.0,0656.5,31.0
2021-02-08T19:52:00Z,00000200,01000000,0001.81,0001.05,0000.73,0000.79,0000.03,0000.39,0027.95,0025.34,0019.41,16.3,23.2,,00.0,0656.5,31.0
2021-02-08T19:53:00Z,00000200,01000000,0001.49,0000.92,0000.22,0000.39,0000.19,0000.43,0020.44,0018.47,0014.23,16.3,23.1,,00.0,0656.5,31.0
2021-02-08T19:54:00Z,00000200,01000000,0000.10,0000.28,0000.32,0000.50,0000.47,0000.28,0004.97,0004.46,0003.52,16.3,23.1,,00.0,0656.5,30.9
2021-02-08T19:55:00Z,00000200,01000000,0001.82,0000.69,0000.36,0000.40,-000.03,0000.19,0019.07,0017.16,0013.04,16.2,23.1,,00.0,0656.5,30.9
2021-02-08T19:56:00Z,00000200,01000000,0000.85,0000.18,0000.18,0000.04,0000.31,-000.09,0002.38,0002.42,0001.64,16.2,23.1,,00.0,0656.6,30.9
2021-02-08T19:57:00Z,00000200,41000000,,,,,,,0001.48,0001.21,0000.72,16.2,23.1,,00.0,0656.6,30.9
2021-02-08T19:58:00Z,00000200,61000000,,,,,,,-000.32,-000.22,0000.26,15.8,23.2,,00.0,0655.7,30.9
2021-02-08T19:59:00Z,00000200,21000000,,,,,,,0000.32,0000.03,-000.12,15.7,23.3,,00.0,0655.7,30.9
